timestamp,surface_pressure_avg,surface_temp_avg,battery_voltage,lat,long
2018-02-24 00:00:00+00:00,229.8114,1.15,12.81,47.84626,-54.09684
2018-02-24 00:10:00+00:00,234.0081,1.15,12.81,47.84626,-54.09684
2018-02-24 00:20:00+00:00,235.2147,1.16,12.89,47.84626,-54.09684
2018-02-24 00:30:00+00:00,232.4731,1.18,12.89,47.84626,-54.09684
2018-02-24 00:40:00+00:00,232.1181,1.15,12.89,47.84626,-54.09684
2018-02-24 00:50:00+00:00,234.6347,1.13,12.89,47.84626,-54.09684
2018-02-24 01:00:00+00:00,235.7331,1.1,12.81,47.84626,-54.09684
2018-02-24 01:10:00+00:00,238.9614,1.1,12.81,47.84626,-54.09684
2018-02-24 01:20:00+00:00,242.1814,1.1,12.89,47.84626,-54.09684
2018-02-24 01:30:00+00:00,242.2864,1.1,12.89,47.84626,-54.09684
2018-02-24 01:40:00+00:00,242.0397,1.09,12.89,47.84626,-54.09684
2018-02-24 01:50:00+00:00,251.7898,1.06,12.89,47.84626,-54.09684
2018-02-24 02:00:00+00:00,262.4164,1.01,12.81,47.84626,-54.09684
2018-02-24 02:10:00+00:00,264.8514,1.0,12.73,47.84626,-54.09684
2018-02-24 02:20:00+00:00,270.0247,1.0,12.81,47.84626,-54.09684
2018-02-24 02:30:00+00:00,282.6597,1.0,12.81,47.84626,-54.09684
2018-02-24 02:40:00+00:00,284.9481,1.0,12.89,47.84626,-54.09684
2018-02-24 02:50:00+00:00,283.7514,0.9,12.89,47.84626,-54.09684
2018-02-24 03:00:00+00:00,290.6481,0.9,12.81,47.84626,-54.09684
2018-02-24 03:10:00+00:00,300.733,0.9,12.73,47.84626,-54.09684
2018-02-24 03:20:00+00:00,293.3347,0.9,12.81,47.84626,-54.09684
2018-02-24 03:30:00+00:00,289.3647,0.89,12.81,47.84626,-54.09684
2018-02-24 03:40:00+00:00,293.733,0.9,12.81,47.84626,-54.09684
2018-02-24 03:50:00+00:00,307.0247,0.9,12.89,47.84626,-54.09684
2018-02-24 04:00:00+00:00,309.7446,0.9,12.81,47.84626,-54.09684
2018-02-24 04:10:00+00:00,311.3547,0.9,12.73,47.84626,-54.09684
2018-02-24 04:20:00+00:00,318.1213,0.9,12.81,47.84626,-54.09684
2018-02-24 04:30:00+00:00,329.0596,0.9,12.81,47.84626,-54.09684
2018-02-24 04:40:00+00:00,332.928,0.9,12.81,47.84626,-54.09684
2018-02-24 04:50:00+00:00,331.8613,0.9,12.81,47.84626,-54.09684
2018-02-24 05:00:00+00:00,331.4579,0.9,12.73,47.84626,-54.09684
2018-02-24 05:10:00+00:00,340.928,0.9,12.73,47.84626,-54.09684
2018-02-24 05:20:00+00:00,340.7662,0.9,12.81,47.84626,-54.09684
2018-02-24 05:30:00+00:00,330.6997,0.88,12.81,47.84626,-54.09684
2018-02-24 05:40:00+00:00,323.1913,0.9,12.81,47.84626,-54.09684
2018-02-24 05:50:00+00:00,328.9547,0.9,12.81,47.84626,-54.09684
2018-02-24 06:00:00+00:00,332.8596,0.9,12.73,47.84626,-54.09684
2018-02-24 06:10:00+00:00,330.2162,0.9,12.73,47.84626,-54.09684
2018-02-24 06:20:00+00:00,336.2979,0.9,12.81,47.84626,-54.09684
2018-02-24 06:30:00+00:00,347.5996,0.9,12.81,47.84626,-54.09684
2018-02-24 06:40:00+00:00,342.8962,0.89,12.81,47.84626,-54.09684
2018-02-24 06:50:00+00:00,331.9846,0.89,12.81,47.84626,-54.09684
2018-02-24 07:00:00+00:00,328.6797,0.9,12.73,47.84626,-54.09684
2018-02-24 07:10:00+00:00,328.1663,0.9,12.73,47.84626,-54.09684
2018-02-24 07:20:00+00:00,316.5447,0.9,12.81,47.84626,-54.09684
2018-02-24 07:30:00+00:00,311.1663,0.9,12.81,47.84626,-54.09684
2018-02-24 07:40:00+00:00,311.6796,0.9,12.81,47.84626,-54.09684
2018-02-24 07:50:00+00:00,309.3063,0.9,12.81,47.84626,-54.09684
2018-02-24 08:00:00+00:00,298.468,0.9,12.73,47.84626,-54.09684
2018-02-24 08:10:00+00:00,296.0096,0.9,12.73,47.84626,-54.09684
2018-02-24 08:20:00+00:00,293.7814,0.9,12.81,47.84626,-54.09684
2018-02-24 08:30:00+00:00,287.8181,0.9,12.81,47.84626,-54.09684
2018-02-24 08:40:00+00:00,279.8481,0.9,12.81,47.84626,-54.09684
2018-02-24 08:50:00+00:00,274.5464,0.9,12.81,47.84626,-54.09684
2018-02-24 09:00:00+00:00,266.0781,0.9,12.73,47.84626,-54.09684
2018-02-24 09:10:00+00:00,251.2164,0.9,12.65,47.84626,-54.09684
2018-02-24 09:20:00+00:00,239.2764,0.9,12.81,47.84626,-54.09684
2018-02-24 09:30:00+00:00,234.7647,0.9,12.81,47.84626,-54.09684
2018-02-24 09:40:00+00:00,225.1864,0.9,12.81,47.84626,-54.09684
2018-02-24 09:50:00+00:00,217.8231,0.89,12.81,47.84626,-54.09684
2018-02-24 10:00:00+00:00,221.6664,0.86,12.73,47.84626,-54.09684
2018-02-24 10:10:00+00:00,222.5497,0.86,12.65,47.84626,-54.09684
2018-02-24 10:20:00+00:00,215.3315,0.86,12.81,47.84626,-54.09684
2018-02-24 10:30:00+00:00,212.3882,0.83,12.81,47.84626,-54.09684
2018-02-24 10:40:00+00:00,215.5064,0.8,12.81,47.84626,-54.09684
2018-02-24 10:50:00+00:00,212.2631,0.8,12.81,47.84626,-54.09684
2018-02-24 11:00:00+00:00,211.1297,0.8,12.73,47.84626,-54.09684
2018-02-24 11:10:00+00:00,217.7032,0.8,12.65,47.84626,-54.09684
2018-02-24 11:20:00+00:00,214.8198,0.8,12.81,47.84626,-54.09684
2018-02-24 11:30:00+00:00,209.4864,0.79,12.81,47.84626,-54.09684
2018-02-24 11:40:00+00:00,210.4698,0.77,12.81,47.84626,-54.09684
2018-02-24 11:50:00+00:00,207.6898,0.78,12.81,47.84626,-54.09684
2018-02-24 12:00:00+00:00,201.0448,0.8,12.81,47.84626,-54.09684
2018-02-24 12:10:00+00:00,205.5064,0.79,12.73,47.84626,-54.09684
2018-02-24 12:20:00+00:00,216.4781,0.75,12.81,47.84626,-54.09684
2018-02-24 12:30:00+00:00,214.6682,0.93,12.89,47.84626,-54.09684
2018-02-24 12:40:00+00:00,208.7048,1.0,12.89,47.84626,-54.09684
2018-02-24 12:50:00+00:00,213.1698,0.9,12.97,47.84626,-54.09684
2018-02-24 13:00:00+00:00,221.0265,1.0,12.89,47.84626,-54.09684
2018-02-24 13:10:00+00:00,218.2115,1.09,12.81,47.84626,-54.09684
2018-02-24 13:20:00+00:00,214.0481,1.1,12.97,47.84626,-54.09684
2018-02-24 13:30:00+00:00,216.1314,1.02,12.97,47.84626,-54.09684
2018-02-24 13:40:00+00:00,219.1964,1.01,13.05,47.84626,-54.09684
2018-02-24 13:50:00+00:00,217.2048,1.08,13.13,47.84626,-54.09684
2018-02-24 14:00:00+00:00,215.0514,1.1,13.05,47.84626,-54.09684
2018-02-24 14:10:00+00:00,223.3681,1.0,12.97,47.84626,-54.09684
2018-02-24 14:20:00+00:00,238.7798,1.0,13.13,47.84626,-54.09684
2018-02-24 14:30:00+00:00,244.4514,1.0,13.13,47.84626,-54.09684
2018-02-24 14:40:00+00:00,242.9531,1.07,13.21,47.84626,-54.09684
2018-02-24 14:50:00+00:00,248.8564,1.1,13.21,47.84626,-54.09684
2018-02-24 15:00:00+00:00,260.8764,1.03,13.13,47.84626,-54.09684
2018-02-24 15:10:00+00:00,260.6414,1.1,13.05,47.84626,-54.09684
2018-02-24 15:20:00+00:00,254.8698,1.12,13.21,47.84626,-54.09684
2018-02-24 15:30:00+00:00,259.7264,1.16,13.21,47.84626,-54.09684
2018-02-24 15:40:00+00:00,271.7381,1.1,13.29,47.84626,-54.09684
2018-02-24 15:50:00+00:00,275.188,1.1,13.29,47.84626,-54.09684
2018-02-24 16:00:00+00:00,273.1881,1.13,13.21,47.84626,-54.09684
2018-02-24 16:10:00+00:00,279.9697,1.1,13.13,47.84626,-54.09684
2018-02-24 16:20:00+00:00,292.518,1.1,13.21,47.84626,-54.09684
2018-02-24 16:30:00+00:00,293.9247,1.1,13.21,47.84626,-54.09684
2018-02-24 16:40:00+00:00,293.4647,1.15,13.21,47.84626,-54.09684
2018-02-24 16:50:00+00:00,301.473,1.19,13.13,47.84626,-54.09684
2018-02-24 17:00:00+00:00,310.593,1.12,13.05,47.84626,-54.09684
2018-02-24 17:10:00+00:00,307.2847,1.16,12.89,47.84626,-54.09684
2018-02-24 17:20:00+00:00,303.818,1.19,12.97,47.84626,-54.09684
2018-02-24 17:30:00+00:00,312.1047,1.19,12.97,47.84626,-54.09684
2018-02-24 17:40:00+00:00,318.6796,1.17,12.97,47.84626,-54.09684
2018-02-24 17:50:00+00:00,309.9197,1.18,12.97,47.84626,-54.09684
2018-02-24 18:00:00+00:00,312.4413,1.19,12.89,47.84626,-54.09684
2018-02-24 18:10:00+00:00,325.9713,1.14,12.81,47.84626,-54.09684
2018-02-24 18:20:00+00:00,325.3164,1.1,12.89,47.84626,-54.09684
2018-02-24 18:30:00+00:00,314.4297,1.12,12.89,47.84626,-54.09684
2018-02-24 18:40:00+00:00,324.3896,1.12,12.89,47.84626,-54.09684
2018-02-24 18:50:00+00:00,333.133,1.1,12.89,47.84626,-54.09684
2018-02-24 19:00:00+00:00,319.4347,1.1,12.81,47.84626,-54.09684
2018-02-24 19:10:00+00:00,314.5213,1.1,12.81,47.84626,-54.09684
2018-02-24 19:20:00+00:00,324.4947,1.1,12.81,47.84626,-54.09684
2018-02-24 19:30:00+00:00,320.7097,1.1,12.81,47.84626,-54.09684
2018-02-24 19:40:00+00:00,308.4464,1.1,12.89,47.84626,-54.09684
2018-02-24 19:50:00+00:00,313.8229,1.1,12.89,47.84626,-54.09684
2018-02-24 20:00:00+00:00,319.9013,1.1,12.81,47.84626,-54.09684
2018-02-24 20:10:00+00:00,307.728,1.1,12.73,47.84626,-54.09684
2018-02-24 20:20:00+00:00,297.6281,1.1,12.81,47.84626,-54.09684
2018-02-24 20:30:00+00:00,296.243,1.1,12.81,47.84626,-54.09684
2018-02-24 20:40:00+00:00,292.2498,1.1,12.81,47.84626,-54.09684
2018-02-24 20:50:00+00:00,283.8597,1.1,12.81,47.84626,-54.09684
2018-02-24 21:00:00+00:00,281.7581,1.1,12.81,47.84626,-54.09684
2018-02-24 21:10:00+00:00,279.983,1.1,12.73,47.84626,-54.09684
2018-02-24 21:20:00+00:00,271.9431,1.1,12.81,47.84626,-54.09684
2018-02-24 21:30:00+00:00,262.0047,1.1,12.81,47.84626,-54.09684
2018-02-24 21:40:00+00:00,258.5764,1.1,12.81,47.84626,-54.09684
2018-02-24 21:50:00+00:00,257.033,1.09,12.81,47.84626,-54.09684
2018-02-24 22:00:00+00:00,249.9314,1.0,12.81,47.84626,-54.09684
2018-02-24 22:10:00+00:00,243.0147,0.8,12.73,47.84626,-54.09684
2018-02-24 22:20:00+00:00,242.8047,0.8,12.81,47.84626,-54.09684
2018-02-24 22:30:00+00:00,239.1765,0.8,12.81,47.84626,-54.09684
2018-02-24 22:40:00+00:00,231.7831,0.76,12.81,47.84626,-54.09684
2018-02-24 22:50:00+00:00,229.9448,0.74,12.81,47.84626,-54.09684
2018-02-24 23:00:00+00:00,228.4031,0.76,12.73,47.84626,-54.09684
2018-02-24 23:10:00+00:00,226.5764,0.7,12.73,47.84626,-54.09684
2018-02-24 23:20:00+00:00,226.5231,0.7,12.81,47.84626,-54.09684
2018-02-24 23:30:00+00:00,225.3648,0.7,12.81,47.84626,-54.09684
2018-02-24 23:40:00+00:00,227.0014,0.7,12.81,47.84626,-54.09684
2018-02-24 23:50:00+00:00,226.9214,0.71,12.81,47.84626,-54.09684
